Home > Weather > St. Albert > Past weeks

Flag for Canada Weather for the Past 2 Weeks in St. Albert, Alberta, Canada

Now
47 °F

Cool.


Feels Like: 41 °F
Forecast: 45 / 61 °F
Wind: 14 mph from Southeast

Location: Edmonton Municipal

Current Time: Apr 29, 2016 at 4:59:51 AM

Latest Report: Apr 29, 2016 at 4:00 AM


Visibility: N/A

Pressure: 29.97 "Hg (27.68 "Hg at 653m altitude)

Humidity: 55%

Dew Point: 31 °F

Location of St. AlbertLocation

Historic Weather in St. Albert — Graph

°F

St. Albert Temperature Yesterday

Maximum temperature yesterday: 59 °F (at 5:00 PM)
Minimum temperature yesterday: 40 °F (at 6:00 AM)
Average temperature yesterday: 51 °F

High & Low Weather Summary for the Past Weeks

 TemperatureHumidityPressure
High78 °F (Apr 18, 5:00 PM)100% (Apr 25, 10:00 AM)30.35 "Hg (Apr 25, 10:00 AM)
Low26 °F (Apr 15, 6:00 AM)9% (Apr 18, 6:00 PM)29.84 "Hg (Apr 14, 4:00 AM)
Average49 °F52%30.09 "Hg
* Reported Apr 14 3:00 AM — Apr 29 3:00 AM, St. Albert, Weather by CustomWeather, © 2016

Note: Actual official high and low records may vary slightly from our data, if they occured in-between our weather recording intervals... More about our weather records

Advertising

St. Albert Weather History for the Previous 24 Hours

Scroll right to see more
 ConditionsComfort  
Time TempWeatherWind HumidityBarometerVisibility
3:00 AM
Fri, Apr 29
48 °FCool.13 mph54%29.98 "HgN/A
2:00 AM48 °FCool.12 mph54%29.99 "HgN/A
1:00 AM49 °FCool.16 mph50%30.00 "HgN/A
12:00 AM51 °FCool.16 mph47%30.01 "HgN/A
11:00 PM
Thu, Apr 28
52 °FCool.17 mph44%30.02 "HgN/A
10:00 PM54 °FCool.16 mph45%30.03 "HgN/A
9:00 PM56 °FRefreshingly cool.15 mph38%30.03 "HgN/A
8:00 PM57 °FRefreshingly cool.17 mph33%30.04 "HgN/A
7:00 PM58 °FRefreshingly cool.18 mph31%30.06 "HgN/A
6:00 PM59 °FRefreshingly cool.17 mph31%30.08 "HgN/A
5:00 PM59 °FRefreshingly cool.17 mph31%30.09 "HgN/A
4:00 PM59 °FRefreshingly cool.21 mph32%30.11 "HgN/A
3:00 PM57 °FRefreshingly cool.22 mph35%30.13 "HgN/A
2:00 PM56 °FRefreshingly cool.22 mph37%30.15 "HgN/A
1:00 PM55 °FCool.22 mph39%30.16 "HgN/A
12:00 PM54 °FCool.15 mph45%30.17 "HgN/A
11:00 AM53 °FCool.13 mph49%30.17 "HgN/A
10:00 AM50 °FCool.13 mph55%30.18 "HgN/A
9:00 AM46 °FCool.13 mph63%30.19 "HgN/A
8:00 AM45 °FCool.9 mph65%30.18 "HgN/A
7:00 AM42 °FQuite cool.7 mph73%30.17 "HgN/A
6:00 AM40 °FQuite cool.6 mph74%30.17 "HgN/A
5:00 AM41 °FQuite cool.6 mph71%30.17 "HgN/A
4:00 AM41 °FQuite cool.6 mph70%30.16 "HgN/A
Weather by CustomWeather, © 2016

See weather overviewHow to use our weather pages